Year,Month,Day,Hour,Minute,Value (Times are PST for temperature in C)
2016,09,26,09,57,15.30
2016,09,26,09,58,15.30
2016,09,26,09,59,15.40
2016,09,26,10,00,15.40
2016,09,26,10,01,15.50
2016,09,26,10,02,15.60
2016,09,26,10,03,15.60
2016,09,26,10,04,15.70
2016,09,26,10,05,15.80
2016,09,26,10,06,15.80
2016,09,26,10,07,15.70
2016,09,26,10,08,15.70
2016,09,26,10,09,15.70
2016,09,26,10,10,15.80
2016,09,26,10,11,15.80
2016,09,26,10,12,15.90
2016,09,26,10,13,15.90
2016,09,26,10,14,15.90
2016,09,26,10,15,15.90
2016,09,26,10,16,15.90
2016,09,26,10,17,15.90
2016,09,26,10,18,15.90
2016,09,26,10,19,15.90
2016,09,26,10,20,15.90
2016,09,26,10,21,16.00
2016,09,26,10,22,16.10
2016,09,26,10,23,16.10
2016,09,26,10,24,16.20
2016,09,26,10,25,16.20
2016,09,26,10,26,16.20
2016,09,26,10,27,16.30
2016,09,26,10,28,16.30
2016,09,26,10,29,16.40
2016,09,26,10,30,16.30
2016,09,26,10,31,16.30
2016,09,26,10,32,16.30
2016,09,26,10,33,16.40
2016,09,26,10,34,16.40
2016,09,26,10,35,16.50
2016,09,26,10,36,16.50
2016,09,26,10,37,16.50
2016,09,26,10,38,16.50
2016,09,26,10,39,16.40
2016,09,26,10,40,16.40
2016,09,26,10,41,16.40
2016,09,26,10,42,16.40
2016,09,26,10,43,16.50
2016,09,26,10,44,16.50
2016,09,26,10,45,16.60
2016,09,26,10,46,16.70
2016,09,26,10,47,16.70
2016,09,26,10,48,16.80
2016,09,26,10,49,16.80
2016,09,26,10,50,16.80
2016,09,26,10,51,16.70
2016,09,26,10,52,16.60
2016,09,26,10,53,16.60
2016,09,26,10,54,16.50
2016,09,26,10,55,16.50
2016,09,26,10,56,16.40
2016,09,26,10,57,16.50
2016,09,26,10,58,16.60
2016,09,26,10,59,16.60
2016,09,26,11,00,16.70
2016,09,26,11,01,16.80
2016,09,26,11,02,16.90
2016,09,26,11,03,16.90
2016,09,26,11,04,16.90
2016,09,26,11,05,16.90
2016,09,26,11,06,16.90
2016,09,26,11,07,16.90
2016,09,26,11,08,17.00
2016,09,26,11,09,17.00
2016,09,26,11,10,17.00
2016,09,26,11,11,17.10
2016,09,26,11,12,17.10
2016,09,26,11,13,17.10
2016,09,26,11,14,17.10
2016,09,26,11,15,17.20
2016,09,26,11,16,17.20
2016,09,26,11,17,17.20
2016,09,26,11,18,17.20
2016,09,26,11,19,17.20
2016,09,26,11,20,17.20
2016,09,26,11,21,17.30
2016,09,26,11,22,17.40
2016,09,26,11,23,17.40
2016,09,26,11,24,17.40
2016,09,26,11,25,17.40
2016,09,26,11,26,17.40
2016,09,26,11,27,17.40
2016,09,26,11,28,17.50
2016,09,26,11,29,17.50
2016,09,26,11,30,17.50
2016,09,26,11,31,17.60
2016,09,26,11,32,17.60
2016,09,26,11,33,17.70
2016,09,26,11,34,17.70
2016,09,26,11,35,17.70
2016,09,26,11,36,17.70
2016,09,26,11,37,17.70
2016,09,26,11,38,17.60
2016,09,26,11,39,17.60
2016,09,26,11,40,17.60
2016,09,26,11,41,17.60
2016,09,26,11,42,17.70
2016,09,26,11,43,17.70
2016,09,26,11,44,17.70
2016,09,26,11,45,17.80
2016,09,26,11,46,17.80
2016,09,26,11,47,17.90
2016,09,26,11,48,17.90
2016,09,26,11,49,18.00
2016,09,26,11,50,18.00
2016,09,26,11,51,18.00
2016,09,26,11,52,18.10
2016,09,26,11,53,18.20
2016,09,26,11,54,18.20
2016,09,26,11,55,18.30
2016,09,26,11,56,18.30
2016,09,26,11,57,18.30
2016,09,26,11,58,18.20
2016,09,26,11,59,18.10
2016,09,26,12,00,18.10
2016,09,26,12,01,18.10
2016,09,26,12,02,18.10
2016,09,26,12,03,18.10
2016,09,26,12,04,18.10
2016,09,26,12,05,18.10
2016,09,26,12,06,18.10
2016,09,26,12,07,18.10
2016,09,26,12,08,18.10
2016,09,26,12,09,18.10
2016,09,26,12,10,18.10
2016,09,26,12,11,18.10
2016,09,26,12,12,18.10
2016,09,26,12,13,18.20
2016,09,26,12,14,18.20
2016,09,26,12,15,18.20
2016,09,26,12,16,18.10
2016,09,26,12,17,18.10
2016,09,26,12,18,18.00
2016,09,26,12,19,18.00
2016,09,26,12,20,18.00
2016,09,26,12,21,17.90
2016,09,26,12,22,17.90
2016,09,26,12,23,17.90
2016,09,26,12,24,17.90
2016,09,26,12,25,18.00
2016,09,26,12,26,18.00
2016,09,26,12,27,18.00
2016,09,26,12,28,18.10
2016,09,26,12,29,18.10
2016,09,26,12,30,18.20
2016,09,26,12,31,18.20
2016,09,26,12,32,18.30
2016,09,26,12,33,18.30
2016,09,26,12,34,18.30
2016,09,26,12,35,18.30
2016,09,26,12,36,18.20
2016,09,26,12,37,18.20
2016,09,26,12,38,18.20
2016,09,26,12,39,18.20
2016,09,26,12,40,18.30
2016,09,26,12,41,18.30
2016,09,26,12,42,18.40
2016,09,26,12,43,18.40
2016,09,26,12,44,18.30
2016,09,26,12,45,18.30
2016,09,26,12,46,18.30
2016,09,26,12,47,18.30
2016,09,26,12,48,18.30
2016,09,26,12,49,18.30
2016,09,26,12,50,18.30
2016,09,26,12,51,18.30
2016,09,26,12,52,18.30
2016,09,26,12,53,18.30
2016,09,26,12,54,18.40
2016,09,26,12,55,18.40
2016,09,26,12,56,18.50
2016,09,26,12,57,18.60
2016,09,26,12,58,18.60
2016,09,26,12,59,18.60
2016,09,26,13,00,18.60
2016,09,26,13,01,18.70
2016,09,26,13,02,18.70
2016,09,26,13,03,18.70
2016,09,26,13,04,18.80
2016,09,26,13,05,18.70
2016,09,26,13,06,18.70
2016,09,26,13,07,18.80
2016,09,26,13,08,18.80
2016,09,26,13,09,18.80
2016,09,26,13,10,18.80
2016,09,26,13,11,18.80
2016,09,26,13,12,18.80
2016,09,26,13,13,18.80
2016,09,26,13,14,18.80
2016,09,26,13,15,18.70
2016,09,26,13,16,18.70
2016,09,26,13,17,18.70
2016,09,26,13,18,18.70
2016,09,26,13,19,18.70
2016,09,26,13,20,18.70
2016,09,26,13,21,18.80
2016,09,26,13,22,18.80
2016,09,26,13,23,18.90
2016,09,26,13,24,18.90
2016,09,26,13,25,19.00
2016,09,26,13,26,19.00
2016,09,26,13,27,19.00
2016,09,26,13,28,19.00
2016,09,26,13,29,19.00
2016,09,26,13,30,19.00
2016,09,26,13,31,19.10
2016,09,26,13,32,19.10
2016,09,26,13,33,19.10
2016,09,26,13,34,19.10
2016,09,26,13,35,19.10
2016,09,26,13,36,19.10
2016,09,26,13,37,19.00
2016,09,26,13,38,19.00
2016,09,26,13,39,19.00
2016,09,26,13,40,19.00
2016,09,26,13,41,19.00
2016,09,26,13,42,19.00
2016,09,26,13,43,19.00
2016,09,26,13,44,19.00
2016,09,26,13,45,19.00
2016,09,26,13,46,19.00
2016,09,26,13,47,19.00
2016,09,26,13,48,19.00
2016,09,26,13,49,19.00
2016,09,26,13,50,19.00
2016,09,26,13,51,19.00
2016,09,26,13,52,19.00
2016,09,26,13,53,19.00
2016,09,26,13,54,19.10
2016,09,26,13,55,19.10
2016,09,26,13,56,19.20
2016,09,26,13,57,19.20
2016,09,26,13,58,19.20
2016,09,26,13,59,19.20
2016,09,26,14,00,19.20
2016,09,26,14,01,19.20
2016,09,26,14,02,19.30
2016,09,26,14,03,19.30
2016,09,26,14,04,19.30
2016,09,26,14,05,19.30
2016,09,26,14,06,19.40
2016,09,26,14,07,19.40
2016,09,26,14,08,19.40
2016,09,26,14,09,19.40
2016,09,26,14,10,19.50
2016,09,26,14,11,19.50
2016,09,26,14,12,19.50
2016,09,26,14,13,19.60
2016,09,26,14,14,19.60
2016,09,26,14,15,19.70
2016,09,26,14,16,19.70
2016,09,26,14,17,19.70
2016,09,26,14,18,19.70
2016,09,26,14,19,19.70
2016,09,26,14,20,19.60
2016,09,26,14,21,19.60
2016,09,26,14,22,19.60
2016,09,26,14,23,19.60
2016,09,26,14,24,19.60
2016,09,26,14,25,19.60
2016,09,26,14,26,19.50
2016,09,26,14,27,19.50
2016,09,26,14,28,19.40
2016,09,26,14,29,19.40
2016,09,26,14,30,19.40
2016,09,26,14,31,19.40
2016,09,26,14,32,19.40
2016,09,26,14,33,19.30
2016,09,26,14,34,19.30
2016,09,26,14,35,19.30
2016,09,26,14,36,19.30
2016,09,26,14,37,19.30
2016,09,26,14,38,19.40
2016,09,26,14,39,19.40
2016,09,26,14,40,19.40
2016,09,26,14,41,19.40
2016,09,26,14,42,19.40
2016,09,26,14,43,19.40
2016,09,26,14,44,19.40
2016,09,26,14,45,19.40
2016,09,26,14,46,19.40
2016,09,26,14,47,19.40
2016,09,26,14,48,19.40
2016,09,26,14,49,19.40
2016,09,26,14,50,19.50
2016,09,26,14,51,19.50
2016,09,26,14,52,19.60
2016,09,26,14,53,19.60
2016,09,26,14,54,19.70
2016,09,26,14,55,19.80
2016,09,26,14,56,19.80
2016,09,26,14,57,19.80
2016,09,26,14,58,19.90
2016,09,26,14,59,19.90
2016,09,26,15,00,20.00
2016,09,26,15,01,20.00
2016,09,26,15,02,20.10
2016,09,26,15,03,20.20
2016,09,26,15,04,20.30
2016,09,26,15,05,20.30
2016,09,26,15,06,20.30
2016,09,26,15,07,20.30
2016,09,26,15,08,20.30
2016,09,26,15,09,20.40
2016,09,26,15,10,20.40
2016,09,26,15,11,20.50
2016,09,26,15,12,20.50
2016,09,26,15,13,20.50
2016,09,26,15,14,20.50
2016,09,26,15,15,20.50
2016,09,26,15,16,20.40
2016,09,26,15,17,20.40
2016,09,26,15,18,20.40
2016,09,26,15,19,20.40
2016,09,26,15,20,20.40
2016,09,26,15,21,20.40
2016,09,26,15,22,20.30
2016,09,26,15,23,20.30
2016,09,26,15,24,20.30
2016,09,26,15,25,20.20
2016,09,26,15,26,20.10
2016,09,26,15,27,20.10
2016,09,26,15,28,20.00
2016,09,26,15,29,20.00
2016,09,26,15,30,19.90
2016,09,26,15,31,19.90
2016,09,26,15,32,19.90
2016,09,26,15,33,19.90
2016,09,26,15,34,19.90
2016,09,26,15,35,19.80
2016,09,26,15,36,19.80
2016,09,26,15,37,19.80
2016,09,26,15,38,19.80
2016,09,26,15,39,19.90
2016,09,26,15,40,19.90
2016,09,26,15,41,19.90
2016,09,26,15,42,19.90
2016,09,26,15,43,19.90
2016,09,26,15,44,19.90
2016,09,26,15,45,19.90
2016,09,26,15,46,19.90
2016,09,26,15,47,19.90
2016,09,26,15,48,19.90
2016,09,26,15,49,19.80
2016,09,26,15,50,19.80
2016,09,26,15,51,19.70
2016,09,26,15,52,19.60
2016,09,26,15,53,19.60
2016,09,26,15,54,19.50
2016,09,26,15,55,19.50
2016,09,26,15,56,19.50
2016,09,26,15,57,19.50
2016,09,26,15,58,19.50
2016,09,26,15,59,19.40
2016,09,26,16,00,19.40
2016,09,26,16,01,19.40
2016,09,26,16,02,19.50
2016,09,26,16,03,19.50
2016,09,26,16,04,19.50
2016,09,26,16,05,19.40
2016,09,26,16,06,19.40
2016,09,26,16,07,19.40
2016,09,26,16,08,19.50
2016,09,26,16,09,19.50
2016,09,26,16,10,19.60
2016,09,26,16,11,19.60
2016,09,26,16,12,19.60
2016,09,26,16,13,19.60
2016,09,26,16,14,19.60
2016,09,26,16,15,19.50
2016,09,26,16,16,19.40
2016,09,26,16,17,19.30
2016,09,26,16,18,19.30
2016,09,26,16,19,19.30
2016,09,26,16,20,19.30
2016,09,26,16,21,19.30
2016,09,26,16,22,19.30
2016,09,26,16,23,19.30
2016,09,26,16,24,19.30
2016,09,26,16,25,19.30
2016,09,26,16,26,19.30
2016,09,26,16,27,19.30
2016,09,26,16,28,19.30
2016,09,26,16,29,19.30
2016,09,26,16,30,19.30
2016,09,26,16,31,19.30
2016,09,26,16,32,19.30
2016,09,26,16,33,19.30
2016,09,26,16,34,19.30
2016,09,26,16,35,19.30
2016,09,26,16,36,19.30
2016,09,26,16,37,19.20
2016,09,26,16,38,19.20
2016,09,26,16,39,19.10
2016,09,26,16,40,19.10
2016,09,26,16,41,19.10
2016,09,26,16,42,19.10
2016,09,26,16,43,19.00
2016,09,26,16,44,19.00
2016,09,26,16,45,18.90
2016,09,26,16,46,18.90
2016,09,26,16,47,18.80
2016,09,26,16,48,18.80
2016,09,26,16,49,18.80
2016,09,26,16,50,18.70
2016,09,26,16,51,18.70
2016,09,26,16,52,18.70
2016,09,26,16,53,18.60
2016,09,26,16,54,18.60
2016,09,26,16,55,18.60
2016,09,26,16,56,18.60
2016,09,26,16,57,18.60
2016,09,26,16,58,18.60
2016,09,26,16,59,18.70
2016,09,26,17,00,18.70
2016,09,26,17,01,18.70
2016,09,26,17,02,18.70
2016,09,26,17,03,18.70
2016,09,26,17,04,18.70
2016,09,26,17,05,18.70
2016,09,26,17,06,18.80
2016,09,26,17,07,18.80
2016,09,26,17,08,18.80
2016,09,26,17,09,18.80
2016,09,26,17,10,18.80
2016,09,26,17,11,18.80
2016,09,26,17,12,18.80
2016,09,26,17,13,18.80
2016,09,26,17,14,18.80
2016,09,26,17,15,18.80
2016,09,26,17,16,18.80
2016,09,26,17,17,18.80
2016,09,26,17,18,18.70
2016,09,26,17,19,18.80
2016,09,26,17,20,18.80
2016,09,26,17,21,18.80
2016,09,26,17,22,18.80
2016,09,26,17,23,18.80
2016,09,26,17,24,18.80
2016,09,26,17,25,18.70
2016,09,26,17,26,18.70
2016,09,26,17,27,18.70
2016,09,26,17,28,18.60
2016,09,26,17,29,18.60
2016,09,26,17,30,18.60
2016,09,26,17,31,18.60
2016,09,26,17,32,18.60
2016,09,26,17,33,18.60
2016,09,26,17,34,18.60
2016,09,26,17,35,18.60
2016,09,26,17,36,18.60
2016,09,26,17,37,18.60
2016,09,26,17,38,18.60
2016,09,26,17,39,18.60
2016,09,26,17,40,18.60
2016,09,26,17,41,18.60
